TimePDT,TemperatureF,Dew PointF,Humidity,Sea Level PressureIn,VisibilityMPH,Wind Direction,Wind SpeedMPH,Gust SpeedMPH,PrecipitationIn,Events,Conditions,WindDirDegrees,DateUTC
12:55 AM,68.0,61.0,78,29.95,3.0,SSW,4.6,-,0.00,,Haze,210,2013-07-22 07:55:00
1:55 AM,68.0,61.0,78,29.95,4.0,SSW,4.6,-,N/A,,Haze,210,2013-07-22 08:55:00
2:55 AM,66.9,60.1,79,29.94,5.0,WSW,3.5,-,N/A,,Haze,240,2013-07-22 09:55:00
3:55 AM,68.0,61.0,78,29.94,6.0,Calm,Calm,-,0.02,Rain,Light Rain,0,2013-07-22 10:55:00
4:17 AM,68.0,60.8,78,29.91,5.0,Calm,Calm,-,0.02,Rain,Light Rain,0,2013-07-22 11:17:00
4:55 AM,68.0,61.0,78,29.94,7.0,Calm,Calm,-,0.02,Rain,Light Rain,0,2013-07-22 11:55:00
5:55 AM,68.0,61.0,78,29.95,6.0,Calm,Calm,-,0.00,,Haze,0,2013-07-22 12:55:00
6:37 AM,68.0,62.6,83,29.92,4.0,Calm,Calm,-,N/A,,Haze,0,2013-07-22 13:37:00
6:55 AM,68.0,62.1,81,29.96,4.0,SW,3.5,-,N/A,,Haze,220,2013-07-22 13:55:00
7:03 AM,68.0,62.6,83,29.94,5.0,SSW,3.5,-,N/A,,Haze,210,2013-07-22 14:03:00
7:55 AM,70.0,62.1,76,29.99,6.0,SW,6.9,-,N/A,,Haze,230,2013-07-22 14:55:00
8:55 AM,70.0,61.0,73,30.00,9.0,SW,3.5,-,N/A,,Overcast,220,2013-07-22 15:55:00
9:19 AM,71.6,60.8,69,29.97,9.0,WSW,3.5,-,N/A,,Mostly Cloudy,240,2013-07-22 16:19:00
9:55 AM,72.0,61.0,68,29.99,8.0,Calm,Calm,-,N/A,,Scattered Clouds,0,2013-07-22 16:55:00
10:55 AM,73.9,62.1,66,30.00,8.0,SSW,8.1,-,N/A,,Clear,210,2013-07-22 17:55:00
11:55 AM,77.0,61.0,58,30.00,10.0,SW,10.4,-,N/A,,Clear,220,2013-07-22 18:55:00
12:55 PM,78.1,62.1,58,30.00,10.0,WSW,9.2,-,N/A,,Clear,240,2013-07-22 19:55:00
1:55 PM,78.1,61.0,56,29.99,10.0,SW,11.5,-,N/A,,Partly Cloudy,220,2013-07-22 20:55:00
2:55 PM,77.0,60.1,56,29.99,10.0,SSW,10.4,-,N/A,,Partly Cloudy,210,2013-07-22 21:55:00
3:55 PM,75.9,60.1,58,29.99,10.0,SSW,8.1,-,N/A,,Clear,210,2013-07-22 22:55:00
4:55 PM,75.0,59.0,57,29.97,10.0,SSW,10.4,-,N/A,,Clear,200,2013-07-22 23:55:00
5:55 PM,73.0,59.0,61,29.96,10.0,SW,8.1,-,N/A,,Clear,220,2013-07-23 00:55:00
6:55 PM,72.0,59.0,64,29.98,10.0,SSW,6.9,-,N/A,,Clear,210,2013-07-23 01:55:00
7:55 PM,70.0,59.0,68,29.98,10.0,SSW,5.8,-,N/A,,Clear,200,2013-07-23 02:55:00
8:55 PM,69.1,59.0,70,29.99,10.0,Calm,Calm,-,N/A,,Clear,0,2013-07-23 03:55:00
9:55 PM,69.1,59.0,70,29.99,10.0,Calm,Calm,-,N/A,,Clear,0,2013-07-23 04:55:00
10:55 PM,69.1,60.1,73,29.99,10.0,South,3.5,-,N/A,,Clear,180,2013-07-23 05:55:00
11:04 PM,68.0,59.0,73,29.97,10.0,South,4.6,-,N/A,,Scattered Clouds,190,2013-07-23 06:04:00
11:15 PM,68.0,59.0,73,29.97,9.0,Calm,Calm,-,N/A,,Mostly Cloudy,0,2013-07-23 06:15:00
11:55 PM,69.1,60.1,73,30.00,9.0,SW,3.5,-,N/A,,Overcast,230,2013-07-23 06:55:00